Location: Gradaro
(45.0833°N, 10.8833°E)
Time: 00:16:24
(UTC+00:00)

Cosmos 2263 Rocket - Pass Details

Date: 23 April 2021
Orbit: 824 x 848 km, 71.0° (Epoch: 15 May)

Event Time Altitude Azimuth Distance (km) Brightness Sun altitude
Exits shadow 20:17:21 23° 85° (E) 1,701 3.4 -19.6°
Drops below altitude 10° 20:20:39 10° 50° (NE) 2,432 4.5 -20.0°
Sets 20:23:29 0° 37° (NE) 3,373 5.4 -20.4°
